SCP
0 0 0 0 0 0 0 0 0 0 0 0 0 0 0 0 0 0 0 0 0 0 0 0 0 0 0 0 0 0 0 0 0 0 0 0 0 0 0 0 0 0 0
0 0 0 0 0 0 0 0 0 0 0 0 0 0 0 0 0 0 0 0 0 0 0 0 0 0 0 0 0 0 0 0 0 0 0 0 0 0 0 -0 0 0 0
0 0 0 0 0 0 0 0 0 0 0 0 0 0 0 0 0 0 0 0 0 0 0 0 0 0 0 0 0 0 0 0 0 0 0 0 0 0 0 0 0 0 0
0 0 0 0 0 0 0 0 0 0 0 0 0 0 0 0 0 0 0 0 0 0 0 0 0 0 0 0 0 0 0 0 0 0 0 0 0 0 0 0 0 0 0
0 0 0 0 0 0 0 0 0 0 0 0 0 0 0 0 0 0 0 0 0 0 0 0 0 0 0 0 0 0 0 0 0 0 0 0 0 0 0 0 0 0 0
0 0 0 0 0 0 0 0 0 0 0 0 0 0 0 0 0 0 0 0 0 0 0 0 0 0 0 0 0 0 0 0 0 0 0 0 0 0 0 0 0 0 0
0 0 0 0 0 0 0 0 0 0 0 0 0 0 0 0 0 0 0 0 0 0 0 0 0 0 0 0 0 0 0 0 0 0 0 0 0 0 0 0 0 0 0
0 0 0 0 0 0 0 0 0 0 0 0 0 0 0 0 0 0 0 0 0 0 0 0 0 0 0 0 0 0 0 0 0 0 0 0 0 0 0 0 0 0 0
0 0 0 0 0 0 0 0 0 0 0 0 0 0 0 0 0 0 0 0 0 0 0 0 0 0 0 0 0 0 0 0 0 0 0 0 0 0 0 0 0 0 0
0 0 0 0 0 0 0 0 0 0 0 0 0 0 0 0 0 0 0 0 0 0 0 0 0 0 0 0 0 0 0 0 0 0 0 0 0 0 0 0 0 0 0
0 0 0 0 0 0 0 0 0 0 0 0 0 0 0 0 0 0 0 0 0 0 0 0 0 0 0 0 0 0 0 0 0 0 0 0 0 0 0 0 0 0 0
0 0 0 0 0 0 0 0 0 0 0 0 0 0 0 0 0 0 0 0 0 0 0 0 0 0 0 0 0 0 0 0 0 0 0 0 0 0 0 0 0 0 0
0 0 0 0 0 0 0 0 0 0 0 0 0 0 0 0 0 0 0 0 0 0 0 0 0 0 0 0 0 0 0 0 0 0 0 0 0 0 0 0 0 0 0
0 0 0 0 0 0 0 0 0 0 0 0 0 0 0 0 0 0 0 0 0 0 0 0 0 0 0 0 0 0 0 0 0 0 0 0 0 0 0 0 0 0 0
0 0 0 0 0 0 0 0 0 0 0 0 0 0 0 0 0 0 0 0 0 0 0 0 0 0 0 0 0 0 0 0 0 0 0 0 0 0 0 0 0 0 0
0 0 0 0 0 0 0 0 0 0 0 0 0 0 0 0 0 0 0 0 0 0 0 0 0 0 0 0 0 0 0 0 0 0 0 0 0 0 0 0 0 0 0
0 0 0 0 0 0 0 0 0 0 0 0 0 0 0 0 0 0 0 0 0 0 0 0 0 0 0 0 0 0 0 0 0 0 0 0 0 0 0 0 0 0 0
0 0 0 0 0 0 0 0 0 0 0 0 0 0 0 0 0 0 0 0 0 0 0 0 0 0 0 0 0 0 0 0 0 0 0 0 0 0 0 0 0 0 0
0 0 0 0 0 0 0 0 0 0 0 0 0 0 0 0 0 0 0 0 0 0 0 0 0 0 0 0 0 0 0 0 0 0 0 0 0 0 0 0 0 0 0
0 0 0 0 0 0 0 0 0 0 0 0 0 0 0 0 0 0 0 0 0 0 0 0 0 0 0 0 0 0 0 0 0 0 0 0 0 0 0 0 0 0 0
0 0 0 0 0 0 0 0 0 0 0 0 0 0 0 0 0 0 0 0 0 0 0 0 0 0 0 0 0 0 0 0 0 0 0 0 0 0 0 0 0 0 0
0 0 0 -0 0 0 0 0 0 0 0 0 0 0 0 0 0 0 0 0 0 0 0 0 0 0 0 0 0 0 0 0 0 0 0 0 0 0 0 0 0 0 0
0 -0 -0 -0 0 0 0 0 0 0 0 0 0 0 0 0 0 0 0 0 0 0 0 0 0 0 0 0 0 0 0 0 0 0 0 0 0 0 0 0 0 0 0
-0 -0 -0 0 0 0 0 0 0 0 0 0 0 0 0 0 0 0 0 0 0 0 0 0 0 0 0 0 0 0 0 0 0 0 0 0 0 0 0 0 0 0 0
0 0 0 0 0 0 0 0 0 0 0 0 0 0 0 0 0 0 0 0 0 0 0 0 0 0 0 0 0 0 0 0 0 0 0 0 0 0 0 0 0 0 0
0 0 0 0 0 0 0 0 0 0 0 0 0 0 0 0 0 0 0 0 0 0 0 0 0 0 0 0 0 0 0 0 0 0 0 0 0 0 0 0 0 0 -0
Wind_Speed
8 8 8 7 7 7 7 6 7 5 4 4 4 5 5 4 5 6 7 7 7 7 6 4 4 4 4 3 3 2 2 2 3 3 4 3 3 3 2 1 3 5 5
8 8 7 7 7 7 8 7 7 6 5 4 4 4 5 5 4 5 7 7 7 6 6 5 4 3 3 4 3 3 2 2 2 2 3 4 3 2 2 3 4 5 5
9 8 8 8 8 8 8 8 8 8 8 7 6 6 4 4 4 5 4 6 6 6 5 5 4 4 3 2 2 2 1 2 2 1 2 3 4 4 3 3 4 5 6
9 8 9 9 9 8 8 10 10 9 8 7 7 7 5 4 3 2 3 4 5 5 5 4 4 3 2 2 3 2 1 1 2 2 2 3 4 5 6 4 5 8 9
11 10 10 10 10 9 9 9 10 10 8 8 8 8 7 4 2 2 4 4 4 5 5 4 4 3 2 3 3 3 2 1 2 2 2 3 3 5 6 9 8 8 8
12 12 11 11 10 8 8 8 10 9 7 8 8 8 7 5 4 3 3 3 2 3 5 4 3 3 2 2 2 2 3 2 2 2 2 3 4 5 6 9 11 11 10
13 13 12 11 9 8 8 7 9 8 6 7 6 6 6 5 4 2 2 2 2 2 3 3 3 2 2 2 2 2 2 2 3 3 4 5 6 7 8 10 12 13 11
13 12 11 10 9 8 7 6 7 6 5 6 5 5 4 3 2 1 1 1 1 2 3 3 2 2 2 2 2 1 1 2 4 6 6 6 7 7 7 8 9 12 11
14 12 10 9 8 8 6 6 6 5 4 4 4 3 3 2 2 1 1 1 2 2 3 3 2 2 1 0 0 1 2 3 4 6 8 7 7 7 7 8 8 9 12
14 12 10 8 7 6 6 5 5 4 3 2 1 2 1 1 1 1 2 2 3 3 4 3 3 3 3 3 2 3 4 4 5 5 8 9 8 8 8 8 8 8 10
15 13 10 8 8 6 5 4 3 2 1 1 0 1 1 1 1 1 2 3 3 4 4 4 4 4 5 5 4 5 5 6 8 8 9 12 12 9 8 8 8 8 9
15 14 12 9 8 7 5 4 3 2 2 1 1 1 1 1 2 2 3 3 4 4 5 5 5 6 6 6 6 7 6 7 9 11 12 13 11 12 10 9 10 9 9
16 14 12 10 9 7 6 4 3 2 2 2 1 2 2 2 3 4 4 4 5 5 5 5 6 7 7 7 7 7 7 8 10 11 13 14 14 13 11 11 11 9 9
18 15 12 9 8 7 6 5 3 3 3 2 2 3 3 4 4 5 5 5 5 6 6 6 7 7 8 7 6 6 7 9 10 12 13 14 14 14 14 12 12 10 9
18 17 14 10 9 7 5 4 3 3 3 3 3 4 4 4 5 5 6 6 6 6 6 6 6 6 5 4 4 5 8 10 12 14 14 14 17 19 15 11 9 9 9
19 17 14 12 10 8 6 5 4 3 3 3 4 4 4 5 6 6 6 6 6 6 5 5 5 5 4 5 9 10 9 11 13 15 14 14 15 16 18 19 19 17 14
17 16 14 11 9 7 6 5 3 3 3 4 4 5 5 6 7 7 6 6 5 4 4 4 4 4 5 8 11 15 12 12 12 13 13 12 12 16 12 15 19 19 21
15 13 11 9 6 4 4 3 3 2 3 4 5 5 5 6 6 5 5 4 3 3 3 4 5 5 7 11 13 18 12 12 12 12 13 13 14 13 13 13 14 14 14
11 9 8 7 6 5 3 3 1 1 2 3 5 5 5 5 5 4 4 4 4 5 5 4 6 6 8 13 15 17 10 11 13 13 13 13 13 15 17 15 14 14 11
10 9 7 6 5 3 3 2 0 2 3 4 5 5 4 4 5 6 5 5 5 5 5 6 6 7 8 13 16 17 9 10 11 11 12 15 14 16 18 13 11 11 8
11 8 6 5 4 3 2 1 1 3 4 4 4 6 6 7 7 6 5 5 5 6 6 7 7 8 9 12 15 17 10 9 11 10 9 9 15 18 18 15 8 6 4
9 7 5 4 2 2 2 2 3 3 4 5 7 7 7 6 6 6 5 5 5 6 7 8 9 7 8 10 13 17 17 16 11 10 9 10 17 19 16 8 3 2 3
7 5 5 4 1 1 2 3 3 3 5 7 7 7 7 6 5 5 5 5 5 6 7 7 8 8 8 9 13 16 18 20 13 10 16 19 18 14 7 8 9 7 6
6 5 5 4 2 3 4 3 3 5 7 8 6 5 6 6 5 4 4 4 5 6 7 8 8 8 8 8 9 10 10 13 12 10 13 16 13 8 7 8 9 8 7
4 4 5 4 4 4 5 5 5 7 8 7 6 5 5 5 5 4 3 4 4 6 7 7 7 8 8 11 17 12 10 10 11 11 7 6 7 7 6 7 7 7 7
5 5 5 5 5 6 6 5 5 6 7 6 5 4 4 4 4 5 5 7 7 11 11 10 9 7 9 15 17 19 19 18 18 10 7 7 7 7 7 7 7 7 7
Wind_Direction
120 107 98 97 90 80 82 81 88 87 94 93 91 85 74 62 57 56 52 53 56 58 60 63 56 54 59 49 37 28 15 2 348 338 318 296 278 272 220 297 316 306 305
131 117 101 89 88 88 83 78 74 68 60 70 80 87 92 76 66 53 48 46 50 48 60 59 54 48 51 41 29 29 9 343 12 354 317 318 315 319 285 296 296 307 311
152 133 112 99 95 88 86 85 75 70 64 71 83 84 72 62 44 36 34 30 42 49 54 53 50 41 42 32 11 18 16 315 310 294 278 298 295 308 282 288 298 304 305
148 133 121 109 101 96 91 86 82 77 72 75 85 87 88 83 59 41 35 27 32 39 45 45 41 35 25 9 343 15 342 306 302 309 281 263 277 291 299 286 289 297 299
146 137 127 117 108 102 96 92 88 81 77 80 88 92 90 92 84 57 46 32 20 24 28 34 27 18 5 353 345 347 349 337 305 303 304 295 284 255 279 295 296 295 289
142 132 125 120 111 103 96 94 91 82 78 82 84 96 103 104 92 64 45 22 2 2 10 15 14 3 355 349 352 2 16 15 343 317 296 289 288 289 285 291 296 295 293
143 139 136 129 119 109 99 93 95 90 86 89 88 94 101 102 99 91 62 33 3 342 339 354 349 347 349 17 43 50 41 22 349 321 304 290 279 279 282 286 291 292 293
145 141 138 132 124 115 106 105 104 103 95 92 89 90 97 101 99 86 66 13 308 287 306 331 342 353 14 54 66 50 348 344 325 317 308 298 290 280 274 276 287 292 291
145 140 136 129 126 122 119 121 118 109 99 98 98 92 91 90 77 42 7 330 314 305 331 332 333 329 330 358 347 299 302 310 305 305 304 299 293 285 275 268 265 274 288
144 140 138 133 127 123 119 113 113 117 117 120 121 106 75 54 36 12 345 326 315 312 315 308 296 283 271 262 264 275 283 296 298 300 302 301 296 290 280 270 264 257 267
149 146 142 135 127 120 118 117 119 116 130 145 97 68 343 336 342 329 308 301 294 295 292 281 273 267 264 259 257 266 279 289 298 303 306 303 299 290 283 277 272 265 262
150 148 144 139 137 135 135 140 153 170 197 220 236 281 298 309 313 304 296 291 286 286 281 274 272 270 267 261 257 268 279 287 297 302 304 303 300 291 287 281 278 273 266
151 148 148 150 150 149 147 157 191 216 229 234 252 289 294 290 287 287 289 287 282 284 283 273 270 272 272 270 266 266 277 287 293 297 300 300 296 290 286 284 280 274 271
155 155 153 152 151 153 158 173 202 228 238 240 249 267 271 271 274 279 281 279 277 278 279 276 273 276 280 280 279 282 290 295 297 298 296 294 289 285 283 281 276 276 278
161 160 156 153 152 156 166 185 211 231 236 240 250 257 263 269 273 276 276 278 279 280 281 284 286 291 290 288 300 304 305 305 306 304 299 293 290 285 283 284 284 287 285
163 159 155 154 158 167 177 188 210 228 231 239 252 261 269 273 272 273 277 285 290 293 297 301 307 315 318 333 331 327 314 311 309 305 303 299 294 293 296 295 293 290 286
158 156 154 157 163 170 174 186 210 230 235 251 266 272 272 275 276 283 292 294 299 306 322 339 350 348 332 334 330 326 323 312 304 300 298 297 295 298 291 290 293 291 286
149 147 146 145 147 149 163 187 211 226 247 266 278 283 286 287 293 304 311 322 342 2 8 16 12 353 334 333 327 325 321 307 301 297 292 290 290 290 291 293 291 288 286
128 127 125 128 137 151 170 175 189 261 284 295 302 308 310 308 325 356 16 26 38 32 23 13 0 345 329 326 323 327 317 308 306 303 298 294 290 290 294 298 294 293 294
109 110 111 117 139 158 160 146 7 328 322 320 322 334 353 27 52 58 55 45 44 31 14 2 347 333 321 317 319 322 316 310 308 305 300 297 292 294 298 298 292 292 302
109 114 126 138 149 156 147 105 8 340 329 347 26 45 60 75 76 69 57 46 35 21 7 350 334 323 315 315 317 321 321 310 306 303 303 300 299 302 302 300 288 280 293
121 131 137 133 138 159 128 63 7 351 28 59 65 63 62 71 73 66 51 35 21 9 357 345 337 329 323 322 322 322 321 320 311 307 306 305 308 311 312 314 332 33 83
134 135 132 123 109 105 102 59 11 40 76 79 72 67 67 59 54 50 35 17 6 359 348 344 341 337 335 331 326 323 323 324 323 314 316 319 320 323 333 31 56 72 76
122 120 117 106 74 54 65 66 62 84 92 87 75 66 60 46 33 26 17 6 356 351 346 344 341 336 337 339 337 330 325 325 328 325 322 323 331 356 26 47 61 66 69
103 109 111 100 77 66 63 69 88 99 93 85 75 62 50 38 21 10 355 350 328 333 337 338 337 338 342 334 330 333 335 337 336 330 330 343 356 20 42 58 66 70 73
103 100 95 89 79 78 74 71 83 95 95 83 68 55 44 31 20 10 2 352 347 337 338 339 344 341 334 332 337 341 340 340 341 344 352 1 11 26 42 57 65 69 73